sat.trackr.live / text

‹ back to catalog

PROBA-V

NORAD 39159 · 2013-021A

PAYLOAD ACTIVE UNKNOWN

§ Identity

Operator
Country
ESA
Launch date
2013-05-07
Launch site
FRGUI
Launch vehicle
Mass (kg)
RCS (m²)
0.34

Purposes: tech_demo

External: N2YO · Heavens-Above · Gunter

§ Orbital elements

Epoch: 2026-09-20T05:07:50.096064Z

Period
101.15 min
Inclination
98.3713°
Eccentricity
0.0003532
Mean motion
14.23613670 rev/d
Perigee alt
810.6 km
Apogee alt
815.7 km
Semi-major
7,191.3 km
B*
3.6617e-5
RAAN
237.1825°
Arg perigee
199.3490°
Mean anomaly
160.7556°
Rev number
69,463

§ Raw data

PROBA-V1 39159U 13021A   26263.21377426  .00000042  00000+0  36617-4 0  99972 39159  98.3713 237.1825 0003532 199.3490 160.7556 14.23613670694637

JSON: /api/v1/satellites/39159 · /tle

For live sub-satellite position, see the globe view (requires WebGL).

§ Visibility from observer

Set your observer location to see the next 7 days of passes ≥ 10°. The values pass through the URL so the page stays shareable.

No JS? Fill the form by hand. The geolocation button needs JavaScript.

§ Radio — SatNOGS DB

ModeDescriptionDownlinkUplink
BPSK S-Band 128000 BPSK Experimental 2.235 GHz
BPSK S-Band BPSK (inactive) 2.235 GHz

2 transmitters · refreshed weekly from db.satnogs.org